| time (UTC) | temp C | wind direction | speed KPH | gust KPH | rain 1hr cm | rain 24hr cm | rain mn cm | humidity % | barometer mb |
| 20260505124520 | 11 | 144 | 0.0 | 0.0 | 0.00 | 0.00 | 0.00 | 71 | 1027.0 |
| 20260505123018 | 11 | 143 | 0.0 | 0.0 | 0.00 | 0.00 | 0.00 | 71 | 1026.8 |
| 20260505121517 | 11 | 136 | 0.0 | 0.0 | 0.00 | 0.00 | 0.00 | 69 | 1026.7 |
| 20260505120019 | 12 | 143 | 0.0 | 0.0 | 0.00 | 0.00 | 0.00 | 68 | 1026.6 |
| 20260505114519 | 12 | 144 | 0.0 | 0.0 | 0.00 | 0.00 | 0.00 | 66 | 1026.5 |
| 20260505113020 | 13 | 144 | 0.0 | 0.0 | 0.00 | 0.00 | 0.00 | 65 | 1026.6 |
| 20260505111515 | 14 | 146 | 0.0 | 0.0 | 0.00 | 0.00 | 0.00 | 63 | 1026.3 |
| 20260505101518 | 15 | 150 | 0.0 | 3.2 | 0.00 | 0.00 | 0.00 | 59 | 1025.9 |
| 20260505100018 | 17 | 150 | 1.6 | 8.0 | 0.00 | 0.00 | 0.00 | 55 | 1025.7 |
| 20260505094512 | 18 | 150 | 0.0 | 3.2 | 0.00 | 0.00 | 0.00 | 50 | 1025.6 |
| 20260505093025 | 19 | 150 | 0.0 | 4.8 | 0.00 | 0.00 | 0.00 | 48 | 1025.4 |
| 20260505091512 | 20 | 135 | 1.6 | 6.4 | 0.00 | 0.00 | 0.00 | 47 | 1025.3 |
| 20260505090011 | 20 | 115 | 4.8 | 11.3 | 0.00 | 0.00 | 0.00 | 47 | 1025.2 |
| 20260505084510 | 21 | 133 | 3.2 | 12.9 | 0.00 | 0.00 | 0.00 | 46 | 1025.2 |
| 20260505083009 | 21 | 136 | 0.0 | 11.3 | 0.00 | 0.00 | 0.00 | 45 | 1025.0 |
| 20260505081510 | 21 | 137 | 4.8 | 12.9 | 0.00 | 0.00 | 0.00 | 44 | 1025.0 |
| 20260505080009 | 21 | 149 | 6.4 | 11.3 | 0.00 | 0.00 | 0.00 | 44 | 1025.0 |
| 20260505074507 | 21 | 115 | 4.8 | 14.5 | 0.00 | 0.00 | 0.00 | 44 | 1024.9 |
| 20260505073007 | 22 | 106 | 3.2 | 9.7 | 0.00 | 0.00 | 0.00 | 44 | 1024.9 |
| 20260505071506 | 22 | 123 | 1.6 | 11.3 | 0.00 | 0.00 | 0.00 | 43 | 1024.9 |
| 20260505070006 | 22 | 133 | 0.0 | 11.3 | 0.00 | 0.00 | 0.00 | 44 | 1024.9 |
| 20260505064509 | 22 | 134 | 1.6 | 9.7 | 0.00 | 0.00 | 0.00 | 44 | 1024.9 |
| 20260505063002 | 22 | 96 | 0.0 | 4.8 | 0.00 | 0.00 | 0.00 | 45 | 1025.0 |
| 20260505061503 | 21 | 117 | 4.8 | 14.5 | 0.00 | 0.00 | 0.00 | 44 | 1025.0 |
| 20260505060059 | 21 | 65 | 1.6 | 9.7 | 0.00 | 0.00 | 0.00 | 45 | 1025.0 |
| 20260505054559 | 21 | 105 | 0.0 | 9.7 | 0.00 | 0.00 | 0.00 | 46 | 1025.1 |
| 20260505053106 | 21 | 329 | 1.6 | 9.7 | 0.00 | 0.00 | 0.00 | 48 | 1025.1 |
| 20260505051553 | 21 | 208 | 1.6 | 6.4 | 0.00 | 0.00 | 0.00 | 49 | 1025.1 |
| 20260505041541 | 20 | 84 | 0.0 | 8.0 | 0.00 | 0.00 | 0.00 | 52 | 1026.3 |
| 20260505040040 | 19 | 323 | 1.6 | 14.5 | 0.00 | 0.00 | 0.00 | 53 | 1026.5 |
| 20260505034536 | 19 | 63 | 3.2 | 9.7 | 0.00 | 0.00 | 0.00 | 54 | 1026.8 |
| 20260505033059 | 18 | 315 | 3.2 | 12.9 | 0.00 | 0.00 | 0.00 | 55 | 1027.0 |
| 20260505031537 | 18 | 360 | 4.8 | 9.7 | 0.00 | 0.00 | 0.00 | 56 | 1027.1 |
| 20260505030032 | 18 | 51 | 3.2 | 9.7 | 0.00 | 0.00 | 0.00 | 57 | 1027.1 |
| 20260505024529 | 17 | 355 | 4.8 | 8.0 | 0.00 | 0.00 | 0.00 | 59 | 1027.2 |
| 20260505023028 | 17 | 81 | 3.2 | 8.0 | 0.00 | 0.00 | 0.00 | 60 | 1027.3 |
| 20260505021525 | 17 | 32 | 3.2 | 8.0 | 0.00 | 0.00 | 0.00 | 61 | 1027.5 |
| 20260505020021 | 16 | 46 | 3.2 | 9.7 | 0.00 | 0.00 | 0.00 | 67 | 1027.6 |
| 20260505014518 | 16 | 360 | 6.4 | 12.9 | 0.00 | 0.00 | 0.00 | 68 | 1027.6 |
| 20260505013013 | 15 | 49 | 3.2 | 14.5 | 0.00 | 0.00 | 0.00 | 71 | 1027.7 |
| 20260505011509 | 13 | 67 | 3.2 | 8.0 | 0.00 | 0.00 | 0.00 | 78 | 1027.7 |
| 20260505010004 | 11 | 65 | 1.6 | 6.4 | 0.00 | 0.00 | 0.00 | 87 | 1027.7 |
| 20260505004602 | 10 | 92 | 0.0 | 0.0 | 0.00 | 0.00 | 0.00 | 93 | 1027.8 |
| 20260505003059 | 9 | 92 | 0.0 | 0.0 | 0.00 | 0.00 | 0.00 | 93 | 1027.9 |
| 20260505001553 | 8 | 92 | 0.0 | 0.0 | 0.00 | 0.00 | 0.00 | 93 | 1027.7 |
| 20260505000050 | 7 | 80 | 0.0 | 0.0 | 0.00 | 0.00 | 0.00 | 93 | 1027.5 |
| 20260504234611 | 6 | 84 | 0.0 | 0.0 | 0.00 | 0.00 | 0.00 | 92 | 1027.5 |
| 20260504233043 | 6 | 86 | 0.0 | 0.0 | 0.00 | 0.00 | 0.00 | 92 | 1027.4 |
| 20260504231551 | 6 | 90 | 0.0 | 0.0 | 0.00 | 0.00 | 0.00 | 91 | 1027.3 |
| 20260504230039 | 6 | 90 | 0.0 | 0.0 | 0.00 | 0.00 | 0.00 | 91 | 1027.2 |
| 20260504224539 | 6 | 90 | 0.0 | 0.0 | 0.00 | 0.00 | 0.00 | 91 | 1027.1 |
| 20260504223039 | 6 | 90 | 0.0 | 0.0 | 0.00 | 0.00 | 0.00 | 91 | 1026.9 |
| 20260504221536 | 6 | 90 | 0.0 | 0.0 | 0.00 | 0.00 | 0.00 | 90 | 1026.9 |
| 20260504220025 | 6 | 90 | 0.0 | 0.0 | 0.00 | 0.00 | 0.00 | 90 | 1026.9 |
| 20260504214533 | 6 | 91 | 0.0 | 0.0 | 0.00 | 0.03 | 0.00 | 90 | 1026.8 |
| 20260504213028 | 6 | 91 | 0.0 | 0.0 | 0.00 | 0.03 | 0.00 | 90 | 1026.7 |
| 20260504211522 | 6 | 91 | 0.0 | 0.0 | 0.00 | 0.03 | 0.00 | 90 | 1026.7 |
| 20260504210021 | 6 | 92 | 0.0 | 0.0 | 0.00 | 0.03 | 0.00 | 91 | 1026.8 |
| 20260504204549 | 6 | 91 | 0.0 | 0.0 | 0.00 | 0.03 | 0.00 | 90 | 1026.8 |
| 20260504203024 | 6 | 91 | 0.0 | 0.0 | 0.00 | 0.03 | 0.00 | 90 | 1026.9 |
| 20260504201518 | 6 | 91 | 0.0 | 0.0 | 0.00 | 0.03 | 0.00 | 90 | 1026.7 |
| 20260504200016 | 6 | 92 | 0.0 | 0.0 | 0.00 | 0.03 | 0.00 | 88 | 1026.5 |
| 20260504194513 | 6 | 92 | 0.0 | 0.0 | 0.00 | 0.03 | 0.00 | 89 | 1026.5 |
| 20260504193021 | 6 | 92 | 0.0 | 0.0 | 0.00 | 0.03 | 0.00 | 88 | 1026.6 |
| 20260504191510 | 7 | 92 | 0.0 | 0.0 | 0.00 | 0.03 | 0.00 | 89 | 1026.6 |
| 20260504190010 | 7 | 92 | 0.0 | 0.0 | 0.00 | 0.03 | 0.00 | 87 | 1026.8 |
| 20260504184507 | 7 | 92 | 0.0 | 0.0 | 0.00 | 0.03 | 0.00 | 88 | 1026.7 |
| 20260504183005 | 7 | 92 | 0.0 | 0.0 | 0.00 | 0.03 | 0.00 | 88 | 1026.7 |
| 20260504181508 | 7 | 92 | 0.0 | 0.0 | 0.00 | 0.03 | 0.00 | 87 | 1026.7 |
| 20260504180001 | 7 | 92 | 0.0 | 0.0 | 0.00 | 0.03 | 0.00 | 87 | 1026.8 |
| 20260504174600 | 7 | 92 | 0.0 | 0.0 | 0.00 | 0.03 | 0.00 | 86 | 1026.9 |
| 20260504173101 | 8 | 92 | 0.0 | 0.0 | 0.00 | 0.03 | 0.00 | 86 | 1026.8 |
| 20260504171557 | 8 | 92 | 0.0 | 0.0 | 0.00 | 0.03 | 0.00 | 83 | 1026.8 |